This is the latest recevied weather packets stored in our database for station/object KD4EED. If no packets are shown the sender has not sent any weather packets the latest 10 day(s).
| Time | Temp. | Humidity | Pressure | Rain* | Wind** | Luminosity | Snow |
|---|---|---|---|---|---|---|---|
| 1777483851 | 21.67° C | 49% | 1014.4 hPa | - | - | 616 W/m² | - |
| 1777483548 | 22.22° C | 48% | 1014.5 hPa | - | - | 604 W/m² | - |
| 1777483243 | 22.22° C | 50% | 1014.4 hPa | - | - | 600 W/m² | - |
| 1777482940 | 21.67° C | 54% | 1014.4 hPa | - | - | 591 W/m² | - |
| 1777482636 | 21.11° C | 55% | 1014.4 hPa | - | - | 585 W/m² | - |
| 1777482333 | 20° C | 57% | 1014.5 hPa | - | - | 574 W/m² | - |
| 1777482030 | 19.44° C | 59% | 1014.4 hPa | - | - | 559 W/m² | - |
| 1777481728 | 18.89° C | 65% | 1014.3 hPa | - | - | 551 W/m² | - |
| 1777481425 | 18.33° C | 68% | 1014.6 hPa | - | - | 540 W/m² | - |
| 1777481121 | 17.78° C | 68% | 1014.6 hPa | - | - | 514 W/m² | - |
| 1777480818 | 17.78° C | 69% | 1014.6 hPa | - | - | 202 W/m² | - |
| 1777480515 | 17.22° C | 66% | 1014.8 hPa | - | - | 65 W/m² | - |
| 1777480211 | 16.67° C | 69% | 1014.9 hPa | - | - | 63 W/m² | - |
| 1777479908 | 16.67° C | 73% | 1014.8 hPa | - | - | 60 W/m² | - |
| 1777479604 | 16.11° C | 71% | 1014.6 hPa | - | - | 58 W/m² | - |
| 1777479302 | 16.11° C | 72% | 1014.7 hPa | - | - | 56 W/m² | - |
| 1777478998 | 16.11° C | 73% | 1014.7 hPa | - | - | 55 W/m² | - |
| 1777478695 | 15.56° C | 73% | 1014.6 hPa | - | - | 53 W/m² | - |
| 1777478391 | 15.56° C | 75% | 1014.9 hPa | - | - | 51 W/m² | - |
| 1777478088 | 15° C | 74% | 1014.7 hPa | - | - | 50 W/m² | - |
| 1777477784 | 15° C | 76% | 1014.8 hPa | - | - | 48 W/m² | - |
| 1777477480 | 15° C | 77% | 1014.9 hPa | - | - | 46 W/m² | - |
| 1777477177 | 14.44° C | 79% | 1014.9 hPa | - | - | 44 W/m² | - |
| 1777476873 | 14.44° C | 79% | 1014.9 hPa | - | - | 43 W/m² | - |
| 1777476572 | 13.89° C | 80% | 1014.9 hPa | - | - | 41 W/m² | - |
* Rain since midnight (hover to see other rain measurements)
** Current wind speed in m/s (hover to see current wind gust speed)